EDRS-C

Last updated on Oct. 26, 2020, 5:52 a.m. UTC

1 44475U 19049A   20299.81712549  .00000142  00000-0  00000-0 0  9993
2 44475   0.0508 280.9928 0000910 285.5917 153.4315  1.00270541  4538
UTC
Height (km)
Latitude
Longitude
Inclination
Orbital Period
UTC large
Height (km)
Speed (km/s)
/
Latitude / Longitude
Inclination (degrees)
Orbital Period (minutes)
Azimuth
Elevation
Range (km)
Doppler Factor
iOS Compass Heading
iOS Angle

Next 30 passes for location: Hong Kong

Rise time Rise Azimuth (degrees) Set time Set Azimuth (degrees) Duration Max altitude (degrees)

No matching passes for this satellites